EZS81AP LIEO-LSGG

Flight info

Callsign EZS81AP
Flight time 1h 7m
Altitude 34000
Route OKIVA P980 DIKEL DCT OKBON DCT PIGOS UM733 BARSO UM622 IRMAR DCT KINES
Aircraft A320/M-SDE2E3FGHIJ1RWXYZ/LB1

Departure

Time 2026-05-07 11:59
Airport Olbia Costa Smeralda Airport (LIEO)

Arrival

Time 2026-05-07 13:06
Airport Geneva International Airport (LSGG)
Time Latitude Longitude Altitude Speed Heading
2026-05-07 11:50 40.90227 9.51615 34 ft 0 kts 325°
2026-05-07 11:51 40.90215 9.51626 34 ft 2 kts 326°
2026-05-07 11:51 40.90202 9.51638 31 ft 2 kts 325°
2026-05-07 11:51 40.90188 9.51650 34 ft 2 kts 325°
2026-05-07 11:51 40.90179 9.51668 33 ft 2 kts 264°
2026-05-07 11:52 40.90182 9.51687 34 ft 1 kts 233°
2026-05-07 11:52 40.90183 9.51689 34 ft 0 kts 234°
2026-05-07 11:52 40.90183 9.51688 34 ft 1 kts 234°
2026-05-07 11:53 40.90164 9.51653 34 ft 9 kts 234°
2026-05-07 11:53 40.90116 9.51560 33 ft 13 kts 236°
2026-05-07 11:53 40.90068 9.51479 34 ft 9 kts 210°
2026-05-07 11:53 40.90016 9.51511 34 ft 9 kts 148°
2026-05-07 11:54 40.89939 9.51494 34 ft 13 kts 208°
2026-05-07 11:54 40.89875 9.51387 34 ft 15 kts 235°
2026-05-07 11:54 40.89816 9.51277 33 ft 14 kts 235°
2026-05-07 11:54 40.89762 9.51174 34 ft 13 kts 234°
2026-05-07 11:55 40.89713 9.51080 34 ft 12 kts 236°
2026-05-07 11:55 40.89669 9.50995 34 ft 11 kts 236°
2026-05-07 11:55 40.89629 9.50919 34 ft 9 kts 235°
2026-05-07 11:55 40.89594 9.50853 34 ft 8 kts 234°
2026-05-07 11:56 40.89556 9.50782 33 ft 13 kts 235°
2026-05-07 11:56 40.89492 9.50659 34 ft 18 kts 235°
2026-05-07 11:56 40.89424 9.50528 34 ft 15 kts 235°
2026-05-07 11:56 40.89384 9.50458 34 ft 4 kts 226°
2026-05-07 11:57 40.89359 9.50442 34 ft 6 kts 196°
2026-05-07 11:57 40.89301 9.50447 34 ft 8 kts 156°
2026-05-07 11:57 40.89276 9.50515 33 ft 11 kts 105°
2026-05-07 11:57 40.89266 9.50596 32 ft 7 kts 89°
2026-05-07 11:58 40.89287 9.50656 34 ft 6 kts 58°
2026-05-07 11:58 40.89312 9.50704 34 ft 12 kts 55°
2026-05-07 11:58 40.89489 9.51042 33 ft 80 kts 56°
2026-05-07 11:58 40.89919 9.51866 33 ft 136 kts 56°
2026-05-07 11:59 40.90498 9.53005 421 ft 152 kts 56°
2026-05-07 11:59 40.91101 9.54173 1203 ft 157 kts 55°
2026-05-07 11:59 40.91765 9.55425 1713 ft 176 kts 54°
2026-05-07 11:59 40.92517 9.56832 2042 ft 199 kts 55°
2026-05-07 12:00 40.93366 9.58420 2383 ft 224 kts 55°
2026-05-07 12:00 40.94293 9.60154 3001 ft 235 kts 55°
2026-05-07 12:00 40.95248 9.61941 3813 ft 240 kts 55°
2026-05-07 12:00 40.96219 9.63759 4648 ft 244 kts 55°
2026-05-07 12:01 40.97276 9.65536 5439 ft 249 kts 40°
2026-05-07 12:01 40.98835 9.66530 6176 ft 254 kts
2026-05-07 12:01 41.00628 9.66258 6660 ft 272 kts 334°
2026-05-07 12:01 41.02259 9.64918 7335 ft 279 kts 324°
2026-05-07 12:02 41.03864 9.63451 8166 ft 282 kts 323°
2026-05-07 12:02 41.05480 9.61956 9029 ft 285 kts 323°
2026-05-07 12:02 41.07111 9.60446 9867 ft 288 kts 321°
2026-05-07 12:02 41.08578 9.58636 10560 ft 293 kts 308°
2026-05-07 12:03 41.09840 9.56384 10800 ft 316 kts 303°
2026-05-07 12:03 41.11146 9.53959 11273 ft 328 kts 303°
2026-05-07 12:03 41.12487 9.51484 11992 ft 333 kts 303°
2026-05-07 12:03 41.13852 9.48975 12744 ft 337 kts 303°
2026-05-07 12:04 41.15229 9.46445 13487 ft 340 kts 303°
2026-05-07 12:04 41.16622 9.43885 14161 ft 344 kts 303°
2026-05-07 12:04 41.18026 9.41304 14813 ft 346 kts 302°
2026-05-07 12:04 41.19439 9.38700 15469 ft 348 kts 302°
2026-05-07 12:05 41.20891 9.36115 16128 ft 352 kts 307°
2026-05-07 12:05 41.22736 9.33865 16772 ft 361 kts 322°
2026-05-07 12:05 41.25045 9.32415 17396 ft 370 kts 333°
2026-05-07 12:05 41.27255 9.31070 17983 ft 370 kts 328°
2026-05-07 12:06 41.29487 9.29500 18551 ft 372 kts 326°
2026-05-07 12:06 41.31746 9.27806 19083 ft 374 kts 325°
2026-05-07 12:06 41.34014 9.26085 19633 ft 376 kts 325°
2026-05-07 12:06 41.36309 9.24378 20171 ft 379 kts 326°
2026-05-07 12:07 41.38633 9.22694 20701 ft 382 kts 326°
2026-05-07 12:07 41.40985 9.21026 21232 ft 385 kts 327°
2026-05-07 12:07 41.43364 9.19363 21730 ft 388 kts 327°
2026-05-07 12:07 41.45765 9.17692 22217 ft 390 kts 327°
2026-05-07 12:08 41.48177 9.16010 22708 ft 393 kts 327°
2026-05-07 12:08 41.50609 9.14305 23182 ft 396 kts 326°
2026-05-07 12:08 41.53057 9.12584 23651 ft 399 kts 326°
2026-05-07 12:08 41.55520 9.10851 24046 ft 401 kts 326°
2026-05-07 12:09 41.57985 9.09095 24469 ft 402 kts 326°
2026-05-07 12:09 41.60452 9.07312 24888 ft 404 kts 325°
2026-05-07 12:09 41.62676 9.05692 25260 ft 405 kts 325°
2026-05-07 12:09 41.65158 9.03883 25660 ft 407 kts 325°
2026-05-07 12:10 41.67654 9.02065 26040 ft 409 kts 324°
2026-05-07 12:10 41.70158 9.00242 26418 ft 411 kts 324°
2026-05-07 12:10 41.72676 8.98410 26827 ft 413 kts 324°
2026-05-07 12:10 41.75202 8.96570 27226 ft 415 kts 324°
2026-05-07 12:11 41.77741 8.94719 27614 ft 417 kts 324°
2026-05-07 12:11 41.80295 8.92858 28007 ft 418 kts 324°
2026-05-07 12:11 41.82857 8.90991 28388 ft 420 kts 324°
2026-05-07 12:11 41.85429 8.89118 28753 ft 422 kts 324°
2026-05-07 12:12 41.88014 8.87232 29089 ft 424 kts 324°
2026-05-07 12:12 41.90610 8.85337 29453 ft 426 kts 324°
2026-05-07 12:12 41.93216 8.83430 29799 ft 427 kts 323°
2026-05-07 12:12 41.95831 8.81509 30140 ft 429 kts 323°
2026-05-07 12:13 41.98455 8.79581 30407 ft 431 kts 323°
2026-05-07 12:13 42.01089 8.77651 30669 ft 433 kts 324°
2026-05-07 12:13 42.03739 8.75708 30927 ft 434 kts 323°
2026-05-07 12:13 42.06397 8.73756 31192 ft 436 kts 323°
2026-05-07 12:14 42.09052 8.71802 31548 ft 435 kts 323°
2026-05-07 12:14 42.11703 8.69848 31926 ft 434 kts 323°
2026-05-07 12:14 42.14349 8.67893 32284 ft 433 kts 323°
2026-05-07 12:14 42.16993 8.65943 32620 ft 433 kts 323°
2026-05-07 12:15 42.19636 8.63996 32990 ft 432 kts 323°
2026-05-07 12:15 42.22270 8.62053 33316 ft 432 kts 324°
2026-05-07 12:15 42.24907 8.60104 33693 ft 431 kts 323°
2026-05-07 12:15 42.27534 8.58159 33964 ft 431 kts 323°
2026-05-07 12:16 42.30163 8.56209 34006 ft 430 kts 323°
2026-05-07 12:16 42.35403 8.52313 34005 ft 429 kts 323°
2026-05-07 12:17 42.40636 8.48409 34007 ft 429 kts 323°
2026-05-07 12:17 42.45898 8.44470 34022 ft 430 kts 323°
2026-05-07 12:17 42.48476 8.42438 34303 ft 427 kts 321°
2026-05-07 12:18 42.50979 8.40288 34595 ft 425 kts 319°
2026-05-07 12:18 42.53424 8.38050 34862 ft 423 kts 318°
2026-05-07 12:18 42.55842 8.35770 35113 ft 423 kts 318°
2026-05-07 12:18 42.58258 8.33488 35360 ft 423 kts 318°
2026-05-07 12:19 42.60686 8.31222 35600 ft 424 kts 318°
2026-05-07 12:19 42.63128 8.28976 35826 ft 424 kts 319°
2026-05-07 12:19 42.65579 8.26744 35986 ft 425 kts 319°
2026-05-07 12:20 42.70462 8.22322 36015 ft 420 kts 319°
2026-05-07 12:20 42.74503 8.18652 36016 ft 419 kts 319°
2026-05-07 12:21 42.79346 8.14230 36011 ft 419 kts 319°
2026-05-07 12:21 42.84217 8.09768 36009 ft 419 kts 319°
2026-05-07 12:22 42.89054 8.05325 36014 ft 419 kts 319°
2026-05-07 12:22 42.93893 8.00881 36015 ft 419 kts 319°
2026-05-07 12:23 42.98732 7.96430 36012 ft 420 kts 319°
2026-05-07 12:23 43.03577 7.91963 36017 ft 420 kts 319°
2026-05-07 12:24 43.08417 7.87485 36016 ft 420 kts 319°
2026-05-07 12:24 43.13265 7.82990 36021 ft 421 kts 319°
2026-05-07 12:25 43.18103 7.78488 36021 ft 421 kts 319°
2026-05-07 12:25 43.22949 7.73978 36018 ft 420 kts 319°
2026-05-07 12:26 43.27784 7.69469 36013 ft 421 kts 319°
2026-05-07 12:26 43.32559 7.65007 36015 ft 421 kts 319°
2026-05-07 12:27 43.37430 7.60452 36011 ft 421 kts 319°
2026-05-07 12:27 43.42273 7.55917 36010 ft 421 kts 319°
2026-05-07 12:28 43.43060 7.55178 36008 ft 421 kts 319°
2026-05-07 12:29 43.45420 7.53362 35988 ft 426 kts 326°
2026-05-07 12:29 43.50355 7.49026 35997 ft 418 kts 317°
2026-05-07 12:30 43.54972 7.44181 36004 ft 418 kts 316°
2026-05-07 12:30 43.59677 7.39436 36008 ft 420 kts 318°
2026-05-07 12:31 43.64508 7.34884 36005 ft 421 kts 320°
2026-05-07 12:31 43.69409 7.30488 36009 ft 421 kts 320°
2026-05-07 12:32 43.74324 7.26063 36014 ft 421 kts 320°
2026-05-07 12:32 43.79236 7.21564 36012 ft 421 kts 320°
2026-05-07 12:33 43.86520 7.14844 36007 ft 421 kts 320°
2026-05-07 12:33 43.91397 7.10354 36001 ft 420 kts 320°
2026-05-07 12:34 43.96265 7.05861 35997 ft 420 kts 320°
2026-05-07 12:34 44.01128 7.01361 35989 ft 420 kts 320°
2026-05-07 12:35 44.06022 6.96819 35980 ft 420 kts 320°
2026-05-07 12:35 44.10885 6.92295 35981 ft 421 kts 321°
2026-05-07 12:36 44.16299 6.88947 35974 ft 436 kts 340°
2026-05-07 12:36 44.22385 6.87828 35974 ft 443 kts 347°
2026-05-07 12:37 44.28512 6.86913 35977 ft 442 kts 347°
2026-05-07 12:37 44.34624 6.85978 35981 ft 442 kts 347°
2026-05-07 12:38 44.40643 6.85054 35982 ft 442 kts 347°
2026-05-07 12:38 44.46757 6.84128 35990 ft 442 kts 348°
2026-05-07 12:39 44.52865 6.83204 35993 ft 442 kts 347°
2026-05-07 12:39 44.58972 6.82275 35991 ft 441 kts 347°
2026-05-07 12:40 44.65067 6.81337 35993 ft 441 kts 347°
2026-05-07 12:40 44.71158 6.80401 35994 ft 440 kts 347°
2026-05-07 12:41 44.77249 6.79470 35987 ft 440 kts 347°
2026-05-07 12:41 44.83350 6.78649 35986 ft 442 kts 350°
2026-05-07 12:42 44.89508 6.78260 35992 ft 443 kts 352°
2026-05-07 12:42 44.95668 6.78000 35984 ft 443 kts 352°
2026-05-07 12:43 45.01831 6.77646 35998 ft 443 kts 351°
2026-05-07 12:43 45.07980 6.77215 36004 ft 442 kts 351°
2026-05-07 12:44 45.14107 6.76790 35827 ft 441 kts 351°
2026-05-07 12:44 45.17202 6.76582 35341 ft 437 kts 351°
2026-05-07 12:44 45.20227 6.76382 34933 ft 433 kts 351°
2026-05-07 12:45 45.23224 6.76187 34516 ft 428 kts 351°
2026-05-07 12:45 45.26187 6.75993 34097 ft 424 kts 351°
2026-05-07 12:45 45.29120 6.75801 33641 ft 419 kts 351°
2026-05-07 12:45 45.32020 6.75613 33159 ft 415 kts 350°
2026-05-07 12:46 45.34841 6.75097 32667 ft 404 kts 342°
2026-05-07 12:46 45.37593 6.74343 32203 ft 401 kts 342°
2026-05-07 12:46 45.40324 6.73591 31767 ft 398 kts 343°
2026-05-07 12:46 45.43032 6.72847 31336 ft 395 kts 343°
2026-05-07 12:47 45.45717 6.72113 30914 ft 392 kts 343°
2026-05-07 12:47 45.48388 6.71389 30486 ft 389 kts 343°
2026-05-07 12:47 45.51037 6.70673 30070 ft 386 kts 343°
2026-05-07 12:47 45.53660 6.69965 29584 ft 383 kts 344°
2026-05-07 12:48 45.56273 6.69276 29094 ft 380 kts 344°
2026-05-07 12:48 45.58861 6.68606 28595 ft 377 kts 345°
2026-05-07 12:48 45.61435 6.67945 28141 ft 374 kts 345°
2026-05-07 12:48 45.63985 6.67291 27689 ft 371 kts 345°
2026-05-07 12:49 45.66506 6.66642 27238 ft 368 kts 345°
2026-05-07 12:49 45.69019 6.65994 26768 ft 366 kts 345°
2026-05-07 12:49 45.71522 6.65347 26326 ft 364 kts 345°
2026-05-07 12:49 45.74002 6.64702 25869 ft 362 kts 346°
2026-05-07 12:50 45.76473 6.64053 25434 ft 359 kts 346°
2026-05-07 12:50 45.78924 6.63391 25009 ft 357 kts 345°
2026-05-07 12:50 45.81355 6.62727 24581 ft 355 kts 346°
2026-05-07 12:50 45.83774 6.62066 24138 ft 353 kts 346°
2026-05-07 12:51 45.86179 6.61411 23720 ft 351 kts 346°
2026-05-07 12:51 45.88572 6.60761 23258 ft 349 kts 346°
2026-05-07 12:51 45.90934 6.60117 22520 ft 344 kts 346°
2026-05-07 12:51 45.92518 6.59686 22002 ft 342 kts 346°
2026-05-07 12:52 45.95603 6.58847 21178 ft 340 kts 346°
2026-05-07 12:52 45.97171 6.58420 20900 ft 338 kts 346°
2026-05-07 12:52 46.00230 6.57593 20340 ft 337 kts 346°
2026-05-07 12:52 46.01777 6.57149 20075 ft 335 kts 342°
2026-05-07 12:53 46.03460 6.56303 19793 ft 330 kts 332°
2026-05-07 12:53 46.05403 6.54569 19424 ft 324 kts 318°
2026-05-07 12:53 46.06994 6.52308 19041 ft 320 kts 306°
2026-05-07 12:53 46.08269 6.49692 18663 ft 318 kts 302°
2026-05-07 12:54 46.09510 6.47052 18285 ft 318 kts 302°
2026-05-07 12:54 46.10748 6.44423 17897 ft 317 kts 302°
2026-05-07 12:54 46.11987 6.41802 17525 ft 315 kts 302°
2026-05-07 12:54 46.13221 6.39198 17160 ft 314 kts 302°
2026-05-07 12:55 46.14425 6.36587 16788 ft 311 kts 297°
2026-05-07 12:55 46.15040 6.33663 16443 ft 305 kts 271°
2026-05-07 12:55 46.14688 6.30692 16100 ft 302 kts 247°
2026-05-07 12:55 46.13830 6.27934 15722 ft 302 kts 249°
2026-05-07 12:56 46.13128 6.25092 15371 ft 300 kts 250°
2026-05-07 12:56 46.12428 6.22261 15041 ft 299 kts 250°
2026-05-07 12:56 46.11734 6.19457 14645 ft 295 kts 250°
2026-05-07 12:56 46.11050 6.16684 14028 ft 293 kts 250°
2026-05-07 12:57 46.10370 6.13916 13398 ft 291 kts 250°
2026-05-07 12:57 46.09630 6.11222 12756 ft 289 kts 242°
2026-05-07 12:57 46.08504 6.08836 12121 ft 287 kts 228°
2026-05-07 12:57 46.07109 6.06792 11454 ft 286 kts 225°
2026-05-07 12:58 46.05701 6.04767 10942 ft 287 kts 225°
2026-05-07 12:58 46.04296 6.02743 10622 ft 285 kts 224°
2026-05-07 12:58 46.02897 6.00728 10309 ft 284 kts 224°
2026-05-07 12:58 46.01505 5.98728 9993 ft 282 kts 224°
2026-05-07 12:59 46.00126 5.96745 9631 ft 281 kts 224°
2026-05-07 12:59 45.98745 5.94757 9265 ft 279 kts 224°
2026-05-07 12:59 45.97409 5.92737 8899 ft 279 kts 232°
2026-05-07 12:59 45.96722 5.90172 8585 ft 279 kts 266°
2026-05-07 13:00 45.97139 5.87481 8238 ft 281 kts 300°
2026-05-07 13:00 45.98378 5.85313 7835 ft 282 kts 313°
2026-05-07 13:00 45.99775 5.83284 7505 ft 281 kts 315°
2026-05-07 13:00 46.01277 5.81513 7188 ft 279 kts 334°
2026-05-07 13:01 46.03155 5.81016 6830 ft 279 kts
2026-05-07 13:01 46.04888 5.82114 6504 ft 274 kts 43°
2026-05-07 13:01 46.05936 5.84330 6154 ft 264 kts 65°
2026-05-07 13:01 46.06884 5.86489 5816 ft 249 kts 44°
2026-05-07 13:02 46.08150 5.88137 5493 ft 241 kts 42°
2026-05-07 13:02 46.09350 5.89784 5176 ft 236 kts 44°
2026-05-07 13:02 46.10491 5.91437 4880 ft 229 kts 44°
2026-05-07 13:02 46.11596 5.93050 4562 ft 223 kts 44°
2026-05-07 13:03 46.12674 5.94622 4263 ft 217 kts 44°
2026-05-07 13:03 46.13724 5.96152 3972 ft 212 kts 44°
2026-05-07 13:03 46.14741 5.97636 3721 ft 204 kts 44°
2026-05-07 13:03 46.15724 5.99071 3428 ft 198 kts 44°
2026-05-07 13:04 46.16667 6.00448 3170 ft 185 kts 43°
2026-05-07 13:04 46.17542 6.01726 2919 ft 174 kts 44°
2026-05-07 13:04 46.18366 6.02930 2686 ft 164 kts 44°
2026-05-07 13:04 46.19155 6.04084 2465 ft 158 kts 43°
2026-05-07 13:05 46.19920 6.05203 2243 ft 154 kts 45°
2026-05-07 13:05 46.20668 6.06296 2037 ft 151 kts 45°
2026-05-07 13:05 46.21394 6.07360 1847 ft 147 kts 44°
2026-05-07 13:05 46.22110 6.08405 1643 ft 146 kts 45°
2026-05-07 13:06 46.22817 6.09448 1453 ft 145 kts 46°
2026-05-07 13:06 46.23485 6.10428 1395 ft 123 kts 46°
2026-05-07 13:06 46.23963 6.11129 1377 ft 73 kts 45°
2026-05-07 13:06 46.24200 6.11473 1373 ft 31 kts 46°
2026-05-07 13:07 46.24307 6.11712 1373 ft 22 kts 68°
2026-05-07 13:07 46.24339 6.11878 1373 ft 10 kts 81°
2026-05-07 13:07 46.24301 6.11940 1373 ft 8 kts 181°
2026-05-07 13:07 46.24259 6.11896 1373 ft 9 kts 225°
2026-05-07 13:08 46.24196 6.11803 1374 ft 17 kts 225°
2026-05-07 13:08 46.24110 6.11677 1374 ft 17 kts 225°
2026-05-07 13:08 46.24034 6.11564 1376 ft 15 kts 226°
2026-05-07 13:08 46.23955 6.11446 1377 ft 16 kts 226°
2026-05-07 13:09 46.23883 6.11342 1376 ft 13 kts 224°
2026-05-07 13:09 46.23810 6.11236 1379 ft 15 kts 225°
2026-05-07 13:09 46.23741 6.11136 1380 ft 15 kts 225°
2026-05-07 13:09 46.23654 6.11008 1382 ft 18 kts 225°
2026-05-07 13:10 46.23574 6.10889 1384 ft 15 kts 225°
2026-05-07 13:10 46.23495 6.10773 1386 ft 17 kts 225°
2026-05-07 13:10 46.23419 6.10662 1387 ft 12 kts 224°
2026-05-07 13:10 46.23364 6.10608 1388 ft 8 kts 192°
2026-05-07 13:11 46.23312 6.10609 1400 ft 6 kts 180°
2026-05-07 13:11 46.23289 6.10608 1396 ft 2 kts 182°
2026-05-07 13:11 46.23281 6.10608 1400 ft 0 kts 181°